Location: Wanzleben
(52.0609°N, 11.4408°E)
Time: 15:59:53
(UTC+00:00)

SPOT 3 Rocket - Pass Details

Date: 18 September 2020
Orbit: 779 x 794 km, 98.8° (Epoch: 22 October)

Event Time Altitude Azimuth Distance (km) Brightness Sun altitude
Exits shadow 18:22:59 12° 121° (ESE) 2,185 5.2 -10.2°
Maximum altitude 18:27:06 33° 61° (ENE) 1,297 4.3 -10.8°
Drops below altitude 10° 18:31:40 10° 359° (N) 2,348 6.3 -11.5°
Sets 18:34:11 0° 350° (N) 3,281 7.2 -11.8°
